Theta_e
295 296 291 289 290 289 290 289 288 290 290 288 291 290 292 293 294 294 295 295 295 295 298 298 299 301 304 305 305 304 304 304 303 301 301 301 300 301 301 300 300 299 298 297
296 289 290 290 290 290 290 288 288 290 289 287 288 288 290 291 291 293 293 294 294 295 296 297 298 299 302 304 304 304 304 303 302 303 303 303 302 302 301 301 299 299 298 297
293 289 290 289 289 288 287 286 285 285 287 287 286 288 289 291 292 293 293 294 295 294 295 296 297 298 301 303 303 303 304 303 303 302 302 299 299 299 298 298 298 298 297 297
289 290 288 288 286 287 285 286 285 283 286 284 286 283 287 290 290 290 291 291 292 294 295 296 296 298 300 303 304 304 304 303 302 302 300 299 298 298 300 299 300 298 297 296
285 286 287 286 284 286 284 286 284 283 284 282 282 283 286 289 287 289 289 290 292 294 294 295 296 297 299 301 302 303 302 302 301 301 300 300 299 300 300 299 298 298 298 297
286 288 287 286 286 285 286 283 283 284 285 281 276 279 284 286 285 287 288 290 291 292 293 294 296 297 298 299 300 300 299 299 300 300 300 299 298 299 298 298 297 298 298 297
285 284 286 287 285 286 284 284 283 281 281 280 274 278 285 285 286 287 287 289 291 292 292 293 293 294 295 296 297 297 297 297 298 298 298 299 298 298 297 297 298 297 297 296
285 282 284 285 284 282 282 282 281 275 277 280 273 278 283 286 287 289 289 289 290 291 292 292 293 293 293 294 295 296 296 296 297 297 297 298 297 297 297 297 297 297 296 296
282 281 284 283 284 283 282 282 281 277 269 276 282 283 285 286 285 286 286 287 287 289 290 291 292 293 293 293 293 294 294 294 295 295 297 296 297 297 296 297 297 296 296 294
283 281 280 282 284 282 282 281 280 281 274 274 279 278 283 280 281 283 284 284 285 287 289 291 291 291 291 292 292 294 294 293 294 294 295 295 296 296 296 296 295 295 295 294
284 284 279 281 280 282 279 280 279 280 279 277 276 281 283 283 282 281 281 283 284 285 288 289 289 290 291 291 291 291 291 292 293 293 294 294 294 295 295 294 294 294 294 293
285 283 280 281 281 282 281 282 282 278 277 277 275 278 284 283 282 282 281 282 284 285 287 288 289 290 290 289 289 289 290 290 291 292 292 292 293 293 293 293 293 294 293 293
285 282 278 278 278 280 278 281 281 279 279 277 276 279 280 280 280 280 281 282 284 284 285 286 287 287 288 287 287 288 289 289 290 290 291 291 290 291 292 292 293 293 292 291
286 281 279 278 278 281 277 279 280 279 277 278 278 282 277 278 280 280 280 282 283 283 284 285 285 286 287 286 286 287 287 288 288 289 289 288 289 289 290 290 291 292 292 290
285 279 279 279 280 276 277 277 278 275 278 277 278 279 284 283 281 279 280 282 283 283 284 284 284 285 285 285 285 285 286 286 287 286 286 286 287 287 287 288 289 290 291 290
284 278 275 274 277 276 275 277 278 277 278 278 278 277 284 280 278 279 281 282 281 282 283 283 284 284 283 283 284 284 284 285 285 285 284 285 285 284 284 285 286 287 288 289
281 279 274 274 272 271 272 275 276 278 279 278 274 280 280 278 278 279 281 281 281 282 282 282 282 282 283 283 283 283 284 285 284 283 284 284 283 282 282 283 284 284 285 287
279 278 278 274 272 268 277 279 279 278 279 281 280 277 277 277 280 281 281 281 281 281 281 282 282 282 283 284 283 283 282 283 282 283 283 284 282 282 281 281 281 282 284 285
283 280 275 271 272 275 277 280 276 275 278 282 280 280 278 279 279 280 283 283 282 283 283 283 284 283 283 283 284 283 283 283 282 282 283 284 284 283 281 279 279 281 283 284
276 280 276 271 269 269 275 278 280 279 272 281 280 278 278 278 273 279 283 283 283 283 284 284 284 284 284 285 285 283 282 282 282 282 283 284 284 283 281 280 279 280 282 283
272 274 272 273 271 275 281 279 280 270 274 278 279 279 278 276 279 281 282 282 283 283 283 284 284 283 283 284 284 282 282 281 282 283 283 283 283 283 282 280 280 280 281 283
272 271 272 273 271 269 280 277 274 278 280 279 279 280 279 280 280 281 281 280 281 281 282 283 282 282 283 284 283 282 281 282 282 281 281 281 281 282 283 281 279 279 281 281
270 277 275 276 276 279 281 281 282 282 280 280 280 281 281 280 280 280 280 281 281 282 281 282 281 281 282 283 283 281 281 281 280 279 279 278 278 280 283 281 279 279 279 280
274 277 274 275 279 279 280 281 282 281 281 282 282 281 281 280 281 280 280 280 281 282 281 281 280 280 280 281 281 281 281 280 278 277 277 277 277 280 283 281 280 279 279 279
277 276 275 275 278 279 280 281 282 282 282 282 282 281 280 281 280 280 279 280 281 281 281 281 279 279 279 280 280 281 280 278 276 276 276 275 277 280 281 281 280 279 280 281
278 276 274 274 280 279 280 283 284 281 281 282 280 279 280 280 279 280 279 281 281 280 280 279 279 279 279 279 279 279 278 277 275 274 274 274 276 280 282 280 279 281 282 282
Wind_Speed
3 2 3 3 3 3 3 1 2 4 4 6 4 11 12 8 6 6 6 6 8 9 7 7 5 6 8 8 10 11 11 10 8 6 5 4 5 4 4 3 3 3 3 2
2 3 2 1 1 1 2 1 0 1 2 5 7 13 5 7 7 8 8 9 10 10 10 10 8 1 5 8 9 10 11 10 8 5 4 2 1 1 2 2 4 4 4 3
0 6 1 1 3 1 4 2 2 3 9 1 11 3 7 10 12 11 11 9 11 12 12 12 10 5 3 6 8 8 8 8 8 7 3 2 1 1 3 4 4 4 5 3
6 3 1 1 3 5 2 4 3 4 5 2 7 1 8 7 10 12 11 12 11 12 12 11 11 10 8 4 3 5 6 7 7 7 5 5 4 4 3 2 1 3 5 5
3 3 3 3 4 4 4 2 3 2 0 2 3 3 8 7 5 9 12 12 12 11 11 11 11 9 9 8 6 3 3 3 4 5 5 4 5 5 4 4 5 6 6 6
4 2 4 4 3 4 4 1 2 1 1 3 3 4 5 1 5 6 10 12 12 12 12 13 11 10 9 8 7 6 4 3 2 3 4 6 7 7 6 6 5 5 5 5
3 2 2 3 2 3 2 1 1 3 3 1 1 4 2 5 7 9 9 10 12 12 12 12 12 11 10 9 7 4 3 1 3 4 5 6 7 8 9 8 6 7 5 6
4 3 2 6 3 1 0 2 3 4 2 3 1 6 3 10 8 8 9 9 9 11 11 11 11 10 10 11 10 9 7 6 5 7 7 7 8 6 7 8 7 6 6 6
4 2 3 5 1 2 3 2 3 3 1 3 3 3 7 9 5 6 8 9 10 10 9 10 10 10 11 10 11 10 9 8 9 10 8 9 8 8 8 9 8 6 7 6
2 2 1 1 2 4 2 3 2 2 3 5 4 5 6 12 10 2 5 6 8 8 9 8 8 9 9 9 9 9 9 10 9 9 9 8 9 9 8 8 10 9 8 8
3 1 3 2 6 4 4 3 2 2 3 4 4 4 4 13 13 9 3 4 4 6 6 6 6 6 8 9 10 10 10 10 8 8 9 9 9 10 9 9 10 10 9 9
2 0 4 3 4 1 2 3 5 5 4 2 4 7 6 13 11 7 4 2 5 5 5 5 7 8 9 10 11 12 10 10 9 10 9 9 10 9 10 11 11 11 11 10
3 2 2 3 3 3 5 7 4 1 2 8 5 3 3 7 7 4 2 3 5 5 6 5 6 7 8 10 11 12 11 10 10 11 10 10 10 11 11 12 12 12 12 11
2 3 5 4 3 2 4 7 9 7 5 6 15 6 6 9 6 5 5 6 6 6 6 5 5 5 7 7 9 10 11 9 10 10 10 11 11 11 12 12 13 13 12 12
2 5 4 7 5 4 7 6 10 15 15 10 14 10 2 8 6 4 5 6 5 4 3 3 5 6 8 8 9 8 9 10 9 10 10 11 10 11 12 12 13 13 14 13
1 2 2 5 5 7 14 15 16 19 18 19 23 29 6 5 3 3 4 5 6 7 7 7 8 9 8 9 10 9 9 10 8 11 13 11 9 11 11 12 12 12 14 14
4 4 2 6 3 8 12 15 21 12 10 16 16 13 5 4 2 3 5 7 7 8 9 10 11 10 10 11 12 11 12 12 11 12 12 12 11 12 12 11 12 13 13 13
5 4 2 5 2 9 2 2 3 11 13 12 11 4 4 4 3 6 11 9 9 9 10 11 10 9 10 12 11 11 10 10 10 13 14 13 12 13 11 10 11 12 11 12
7 5 3 5 5 14 15 5 5 7 8 13 15 5 6 5 7 13 12 9 10 11 11 9 7 7 8 10 10 8 9 10 11 13 14 14 12 13 11 12 11 11 11 11
4 4 7 4 6 8 5 4 2 2 12 9 7 7 4 4 7 7 13 13 12 13 12 13 13 12 13 14 13 12 12 12 14 15 15 13 13 14 13 12 11 10 11 11
5 7 16 12 10 10 4 9 4 3 1 10 6 4 6 8 10 15 14 15 13 12 14 15 14 13 14 14 13 14 14 15 14 15 15 14 15 16 12 12 9 9 10 10
8 9 7 9 7 13 9 7 7 4 8 6 4 6 10 13 15 15 15 14 13 14 15 15 14 13 14 14 13 15 16 14 14 16 17 16 16 14 12 11 9 9 10 10
6 6 5 9 8 3 10 3 9 3 4 6 9 11 12 14 14 15 15 13 12 14 13 14 14 15 14 14 12 16 15 14 16 17 18 16 17 17 15 11 10 8 9 10
6 5 4 2 6 13 12 9 9 9 11 11 10 12 15 17 16 15 13 12 11 12 13 13 13 15 16 15 13 14 14 12 14 18 18 16 17 17 14 8 8 8 9 10
0 8 8 12 14 15 13 13 11 10 8 7 9 12 14 16 17 16 15 15 13 14 14 13 13 14 17 16 15 13 12 11 15 16 15 16 15 16 14 10 9 10 11 12
8 14 10 11 12 12 10 7 3 8 10 10 12 12 14 14 16 16 14 14 14 15 15 15 16 16 17 16 16 14 11 11 15 15 13 12 13 12 10 7 8 19 20 19
Wind_Direction
41 116 132 53 21 344 345 342 317 83 27 316 317 304 324 1 43 44 40 53 26 16 4 355 312 253 211 201 195 185 178 176 175 182 182 210 219 203 214 212 200 211 228 265
110 109 72 6 354 38 37 41 353 122 33 317 331 309 53 33 38 42 34 34 31 24 19 20 10 301 209 194 191 188 184 182 187 189 202 251 202 203 263 198 203 214 217 227
353 71 359 279 37 252 42 7 28 341 323 173 313 175 117 89 75 62 48 37 37 33 25 23 29 42 143 182 193 191 186 188 189 191 172 167 136 204 218 211 228 215 225 227
65 42 73 115 79 339 214 24 22 6 345 329 358 203 142 128 90 64 44 32 30 29 36 34 36 43 44 66 138 180 185 186 191 187 194 221 252 273 289 321 256 211 218 242
78 37 48 44 27 341 57 33 47 55 46 299 20 242 125 180 99 40 36 37 38 35 38 41 41 50 54 49 56 67 124 156 162 183 227 232 250 274 285 278 247 241 232 231
84 73 24 38 59 42 113 341 47 183 156 223 98 326 141 56 348 54 62 57 47 42 43 43 46 49 53 54 55 52 55 83 157 217 230 251 267 277 275 264 257 251 241 235
171 74 95 353 219 132 20 283 231 205 213 321 194 257 26 80 85 92 76 53 47 43 41 40 40 39 38 33 28 34 13 278 244 256 262 263 269 275 271 268 256 250 242 229
185 216 19 2 35 11 309 323 309 281 244 58 232 233 147 124 110 105 73 57 48 42 34 31 31 35 33 27 19 7 349 320 293 275 274 278 274 264 265 256 250 246 245 247
166 194 119 42 7 304 111 268 37 97 125 258 178 235 176 159 123 110 64 43 24 23 27 29 30 35 37 33 26 16 1 343 326 312 301 291 282 267 261 262 254 250 247 247
126 173 73 118 253 67 265 52 182 190 257 251 187 260 232 174 170 146 58 26 0 357 16 26 27 26 30 29 19 12 8 1 352 338 320 300 292 286 271 266 257 246 244 241
150 258 107 232 201 163 142 190 219 313 263 272 279 228 326 178 155 140 106 9 322 319 352 355 359 5 13 17 6 355 353 348 346 340 336 323 307 291 276 260 259 253 250 243
132 290 214 191 120 5 265 258 217 240 175 253 317 273 4 114 119 125 125 307 313 302 312 306 319 343 359 356 346 338 335 331 331 328 325 320 315 306 288 273 262 253 247 239
175 223 238 194 173 185 229 200 196 93 292 222 257 240 82 120 134 158 154 272 281 289 303 296 324 332 335 334 329 329 327 321 317 317 315 314 314 316 307 293 274 259 247 239
222 234 253 271 70 66 206 209 216 209 232 239 231 260 178 184 178 183 212 241 262 257 265 283 297 296 297 297 299 305 306 307 306 305 298 298 300 304 301 297 287 269 250 238
273 262 283 273 261 228 254 228 200 210 224 233 274 231 124 185 193 207 244 246 242 256 287 284 279 282 280 284 288 288 287 289 293 293 286 280 279 289 291 288 284 276 258 240
187 276 349 273 311 294 271 250 237 236 237 250 258 270 268 126 168 213 290 312 304 305 301 292 289 291 288 284 284 286 285 286 293 293 289 287 279 285 282 281 278 270 261 247
184 185 192 268 3 317 270 228 222 222 211 226 243 265 146 166 212 265 273 275 263 271 282 286 288 289 288 289 288 290 291 292 291 288 287 286 280 283 281 285 283 268 257 252
176 182 206 290 300 256 355 187 206 237 255 222 249 177 176 195 226 260 256 253 262 260 265 273 276 276 275 276 279 276 272 273 279 284 290 290 284 283 280 281 275 271 256 245
209 189 238 255 233 299 288 172 205 204 274 220 226 224 211 213 251 265 227 226 237 256 269 273 264 256 264 271 280 281 288 290 287 289 287 286 282 281 280 281 275 268 257 245
222 275 223 159 251 260 54 143 175 206 270 163 169 186 229 301 279 288 338 319 298 293 289 294 301 300 292 288 293 292 290 290 292 296 292 285 286 283 275 274 271 262 251 245
160 207 225 225 248 268 257 150 170 201 336 143 164 208 249 263 279 302 299 293 291 295 293 295 295 294 295 294 292 289 291 289 292 295 291 288 290 287 269 269 257 253 247 235
183 183 198 214 237 260 124 124 208 90 145 164 225 276 279 279 287 292 292 288 290 292 295 296 294 288 290 291 290 287 285 292 295 295 291 290 293 288 277 260 256 242 237 230
238 213 196 211 220 84 197 277 220 219 208 238 283 294 291 289 287 289 285 275 278 283 285 287 288 287 284 284 279 281 286 296 295 292 286 286 291 281 273 253 250 238 227 230
239 188 241 311 234 241 243 253 250 252 263 281 286 290 295 289 288 292 279 267 268 277 281 283 286 282 283 284 279 273 284 287 287 285 283 289 286 279 269 233 235 231 225 222
233 147 217 260 278 287 265 246 253 257 265 263 278 290 291 288 288 285 282 273 276 284 289 286 283 280 280 285 283 282 285 285 285 281 282 284 280 274 268 237 231 228 228 217
200 233 229 254 261 268 287 283 271 270 268 273 290 287 283 283 283 284 281 282 283 283 286 288 288 285 283 285 284 285 286 286 285 281 282 279 278 271 261 234 252 238 234 231